Precipitable_Water
1.46 1.48 1.45 1.42 1.41 1.42 1.44 1.43 1.43 1.41 1.43 1.46 1.41 1.40 1.42 1.50 1.55 1.56 1.62 1.66 1.66 1.66 1.69 1.67 1.68 1.67 1.70 1.76 1.79 1.73 1.69 1.68 1.71 1.70 1.61 1.58 1.56 1.53 1.54 1.56 1.52 1.48
1.45 1.49 1.50 1.50 1.48 1.49 1.50 1.53 1.52 1.50 1.49 1.48 1.50 1.50 1.49 1.49 1.50 1.50 1.48 1.53 1.61 1.60 1.65 1.66 1.65 1.64 1.65 1.72 1.78 1.71 1.71 1.69 1.61 1.72 1.65 1.61 1.55 1.55 1.52 1.52 1.51 1.58
1.50 1.50 1.52 1.50 1.49 1.49 1.49 1.52 1.54 1.54 1.52 1.54 1.54 1.54 1.53 1.51 1.50 1.48 1.46 1.45 1.52 1.61 1.66 1.67 1.66 1.66 1.66 1.66 1.69 1.63 1.64 1.65 1.59 1.68 1.69 1.62 1.59 1.60 1.58 1.57 1.60 1.61
1.52 1.53 1.54 1.54 1.56 1.56 1.58 1.57 1.56 1.57 1.59 1.56 1.53 1.56 1.54 1.59 1.58 1.55 1.50 1.47 1.51 1.55 1.63 1.66 1.66 1.67 1.67 1.64 1.63 1.58 1.62 1.65 1.63 1.68 1.65 1.63 1.61 1.59 1.60 1.64 1.61 1.58
1.52 1.53 1.55 1.57 1.59 1.61 1.63 1.61 1.60 1.61 1.60 1.61 1.62 1.61 1.61 1.59 1.61 1.61 1.59 1.56 1.52 1.51 1.55 1.56 1.61 1.59 1.59 1.59 1.60 1.53 1.60 1.61 1.66 1.65 1.58 1.57 1.60 1.59 1.58 1.58 1.58 1.57
1.54 1.56 1.58 1.58 1.62 1.63 1.62 1.62 1.63 1.65 1.65 1.64 1.64 1.68 1.66 1.66 1.61 1.61 1.62 1.60 1.59 1.52 1.51 1.54 1.54 1.54 1.54 1.54 1.53 1.51 1.53 1.53 1.62 1.69 1.61 1.55 1.55 1.60 1.63 1.64 1.63 1.56
1.51 1.53 1.54 1.59 1.61 1.65 1.66 1.68 1.70 1.70 1.71 1.72 1.74 1.69 1.72 1.72 1.68 1.66 1.66 1.63 1.61 1.62 1.58 1.57 1.56 1.56 1.58 1.57 1.55 1.54 1.50 1.50 1.54 1.60 1.53 1.50 1.51 1.49 1.52 1.54 1.55 1.50
1.51 1.55 1.56 1.57 1.57 1.63 1.66 1.71 1.75 1.76 1.78 1.77 1.74 1.76 1.76 1.74 1.73 1.73 1.70 1.68 1.64 1.60 1.60 1.60 1.61 1.58 1.56 1.54 1.52 1.52 1.51 1.52 1.53 1.51 1.47 1.44 1.47 1.49 1.49 1.47 1.47 1.47
1.53 1.53 1.56 1.54 1.53 1.58 1.63 1.68 1.73 1.78 1.83 1.78 1.75 1.77 1.80 1.75 1.75 1.73 1.72 1.70 1.65 1.63 1.63 1.61 1.61 1.60 1.61 1.56 1.55 1.55 1.53 1.51 1.56 1.61 1.60 1.54 1.52 1.50 1.48 1.48 1.45 1.45
1.55 1.55 1.52 1.51 1.50 1.55 1.59 1.66 1.71 1.76 1.80 1.77 1.78 1.80 1.80 1.82 1.78 1.79 1.78 1.73 1.67 1.64 1.62 1.60 1.61 1.61 1.60 1.61 1.60 1.58 1.55 1.55 1.54 1.56 1.58 1.59 1.56 1.55 1.57 1.56 1.52 1.48
1.56 1.55 1.50 1.49 1.49 1.52 1.55 1.62 1.66 1.72 1.77 1.76 1.77 1.77 1.82 1.86 1.85 1.83 1.82 1.82 1.71 1.67 1.65 1.63 1.63 1.63 1.63 1.63 1.66 1.68 1.66 1.64 1.63 1.63 1.63 1.63 1.63 1.62 1.61 1.59 1.57 1.53
1.58 1.56 1.52 1.49 1.48 1.48 1.53 1.61 1.65 1.66 1.70 1.75 1.76 1.77 1.83 1.87 1.88 1.85 1.82 1.81 1.79 1.76 1.75 1.75 1.74 1.71 1.68 1.68 1.70 1.73 1.71 1.71 1.70 1.68 1.68 1.67 1.68 1.68 1.68 1.68 1.63 1.64
1.64 1.57 1.58 1.55 1.53 1.49 1.53 1.60 1.63 1.66 1.66 1.69 1.74 1.73 1.78 1.83 1.87 1.87 1.89 1.85 1.84 1.80 1.79 1.82 1.82 1.79 1.77 1.77 1.79 1.79 1.78 1.75 1.72 1.70 1.69 1.67 1.67 1.68 1.71 1.73 1.73 1.69
1.81 1.77 1.65 1.63 1.63 1.59 1.54 1.56 1.60 1.62 1.66 1.68 1.71 1.69 1.70 1.75 1.79 1.82 1.87 1.88 1.87 1.85 1.84 1.87 1.87 1.84 1.84 1.85 1.85 1.84 1.81 1.78 1.75 1.70 1.69 1.68 1.70 1.72 1.69 1.68 1.70 1.70
1.76 1.90 1.85 1.80 1.73 1.71 1.58 1.54 1.58 1.60 1.63 1.65 1.66 1.67 1.70 1.70 1.74 1.78 1.81 1.83 1.85 1.86 1.86 1.87 1.85 1.84 1.84 1.85 1.83 1.83 1.83 1.80 1.76 1.74 1.71 1.67 1.69 1.68 1.70 1.72 1.73 1.75
1.77 1.80 1.84 1.87 1.86 1.79 1.78 1.67 1.59 1.57 1.55 1.56 1.57 1.61 1.65 1.70 1.72 1.73 1.74 1.77 1.79 1.82 1.84 1.84 1.83 1.85 1.87 1.86 1.89 1.87 1.79 1.82 1.81 1.74 1.74 1.75 1.74 1.74 1.75 1.75 1.76 1.82
1.82 1.85 1.87 1.82 1.88 1.85 1.81 1.84 1.78 1.63 1.59 1.54 1.51 1.52 1.57 1.63 1.67 1.68 1.67 1.72 1.75 1.78 1.79 1.80 1.80 1.83 1.85 1.84 1.81 1.81 1.88 1.84 1.78 1.76 1.78 1.82 1.82 1.81 1.79 1.78 1.77 1.76
1.88 1.86 1.84 1.87 1.94 1.94 1.93 1.90 1.84 1.81 1.67 1.61 1.52 1.51 1.55 1.60 1.64 1.64 1.66 1.67 1.69 1.72 1.73 1.75 1.78 1.80 1.78 1.79 1.76 1.75 1.76 1.79 1.80 1.76 1.75 1.75 1.81 1.84 1.85 1.82 1.80 1.78
2.00 1.93 1.88 1.90 1.94 1.98 2.00 2.04 1.92 1.84 1.76 1.67 1.60 1.60 1.62 1.58 1.59 1.65 1.66 1.68 1.67 1.63 1.65 1.71 1.78 1.86 1.91 1.76 1.73 1.72 1.71 1.73 1.78 1.80 1.77 1.73 1.71 1.72 1.75 1.77 1.78 1.77
2.04 2.00 1.97 1.97 2.02 2.01 1.94 1.91 1.95 1.91 1.89 1.82 1.77 1.72 1.67 1.63 1.62 1.61 1.64 1.63 1.65 1.67 1.68 1.69 1.70 1.62 1.85 1.88 1.76 1.71 1.70 1.71 1.75 1.80 1.80 1.77 1.74 1.72 1.72 1.74 1.79 1.77
2.06 2.04 2.03 2.07 2.05 1.99 1.96 1.91 1.92 1.95 1.94 1.91 1.87 1.79 1.76 1.71 1.66 1.65 1.64 1.64 1.62 1.66 1.69 1.75 1.63 1.78 1.86 1.75 1.70 1.68 1.69 1.72 1.74 1.76 1.79 1.78 1.77 1.75 1.75 1.76 1.79 1.75
2.09 2.07 2.06 2.07 2.05 2.06 2.03 1.95 1.91 1.93 1.88 1.83 1.83 1.82 1.82 1.74 1.74 1.77 1.71 1.70 1.68 1.68 1.72 1.76 1.80 1.80 1.69 1.66 1.65 1.65 1.69 1.69 1.71 1.72 1.75 1.77 1.77 1.76 1.74 1.80 1.83 1.96
2.11 2.11 2.08 2.08 2.09 2.08 2.06 2.05 2.00 1.99 1.97 1.94 1.91 1.96 1.89 1.78 1.68 1.78 1.85 1.85 1.84 1.79 1.77 1.73 1.65 1.66 1.68 1.70 1.69 1.68 1.69 1.72 1.74 1.76 1.77 1.78 1.81 1.79 1.86 1.98 2.03 2.02
2.13 2.12 2.07 2.05 2.07 2.06 2.06 2.08 2.10 2.08 2.08 2.09 1.96 1.92 1.91 1.93 1.86 1.80 1.80 1.82 1.89 1.89 1.87 1.78 1.74 1.77 1.75 1.76 1.75 1.75 1.74 1.74 1.78 1.77 1.75 1.75 1.76 1.82 1.85 1.85 1.86 1.82
2.13 2.14 2.11 2.13 2.10 2.06 2.09 2.09 2.08 2.07 2.08 2.08 2.04 2.00 1.97 1.98 1.98 1.94 1.92 1.89 1.90 1.95 1.95 1.83 1.75 1.90 1.91 1.83 1.85 1.84 1.84 1.83 1.80 1.74 1.70 1.70 1.72 1.73 1.77 1.76 1.79 1.81
2.12 2.13 2.12 2.16 2.22 2.22 2.14 2.09 2.09 2.11 2.11 2.08 2.05 1.99 1.95 1.98 2.01 1.97 1.92 1.93 1.97 1.99 2.01 1.98 1.92 2.02 2.06 2.01 1.94 1.94 1.93 1.89 1.86 1.77 1.70 1.71 1.75 1.75 1.76 1.80 1.83 1.85
Wind_Speed
14 13 13 12 11 11 11 10 10 9 9 9 9 9 8 8 8 8 8 8 7 7 7 7 6 6 6 5 5 5 4 4 4 4 4 4 4 4 5 5 5 5
15 14 13 13 12 12 12 11 10 10 10 9 9 9 9 9 9 9 9 9 8 8 8 7 7 7 7 6 6 5 5 5 5 4 4 4 4 4 5 5 5 5
16 15 14 14 13 13 13 12 11 11 10 10 10 9 9 9 9 9 9 9 9 9 8 8 8 7 7 7 6 6 6 6 5 5 5 5 5 5 5 5 5 5
17 16 15 15 14 14 13 13 12 12 12 11 11 10 10 10 10 10 10 10 10 9 9 9 8 8 8 8 7 7 7 6 6 6 6 6 5 5 5 5 5 5
17 17 16 16 15 14 14 14 14 13 13 12 12 11 11 11 11 10 10 10 10 10 10 10 9 9 9 8 8 8 7 7 7 7 7 7 6 6 6 6 6 6
18 18 17 17 16 15 15 15 14 14 14 13 13 12 12 12 12 11 11 11 11 11 11 10 10 10 9 9 9 9 8 8 7 7 7 7 7 7 7 7 7 7
18 18 18 18 17 17 16 16 15 15 14 14 14 14 13 13 13 13 12 12 12 11 11 11 11 10 10 10 10 10 9 9 9 8 8 8 8 8 8 8 8 8
19 19 19 19 18 18 17 17 16 16 15 15 15 15 14 14 14 14 13 13 13 12 12 12 12 11 11 11 10 10 10 10 9 9 9 9 9 9 9 8 8 9
20 19 19 19 19 19 18 18 17 17 16 16 16 16 15 15 15 15 14 14 14 14 13 13 13 12 12 12 11 11 11 11 10 10 10 10 10 9 9 9 9 9
21 21 20 20 20 20 19 19 18 17 17 17 17 16 16 16 16 16 15 15 15 15 15 14 14 14 13 13 12 12 12 12 12 11 11 11 10 10 10 10 10 10
22 22 22 22 21 21 20 20 19 18 18 17 17 17 17 16 16 16 16 16 16 15 15 15 15 15 14 14 13 13 13 13 13 12 12 12 12 12 11 11 11 11
23 23 22 23 22 22 21 21 20 20 19 18 18 18 17 17 17 16 16 16 16 16 16 16 16 15 15 15 14 14 14 14 13 13 13 13 13 12 12 12 12 12
23 23 23 23 23 23 22 22 21 21 20 20 19 19 18 18 18 17 17 17 17 17 16 16 16 16 16 16 15 15 15 14 14 14 14 14 13 13 13 13 13 13
23 23 24 24 23 23 23 23 22 22 21 21 20 20 19 19 19 18 18 17 17 17 17 17 17 17 17 17 16 16 16 15 15 15 15 14 14 14 14 14 14 14
24 24 24 24 24 24 24 24 24 23 22 22 21 21 20 20 20 19 19 18 18 18 18 17 17 17 17 17 17 17 16 16 16 16 16 16 16 15 15 15 15 15
25 25 25 25 25 25 25 25 25 24 23 23 22 22 21 21 21 20 20 20 19 19 19 18 18 18 18 18 18 17 17 17 17 17 17 17 17 17 16 16 16 16
26 26 26 26 26 26 26 26 25 25 24 24 24 23 23 22 22 22 21 21 20 20 20 19 19 19 18 19 18 18 18 18 18 18 18 18 17 17 17 17 17 17
28 28 27 27 27 27 27 27 26 25 25 25 25 24 24 23 23 23 22 21 21 21 21 20 20 19 19 20 19 19 19 19 19 19 19 18 18 18 18 18 18 18
30 30 30 29 28 28 28 27 26 26 25 25 25 25 24 24 24 23 23 23 22 22 22 21 20 20 20 20 20 20 21 20 20 20 19 19 19 19 19 19 19 19
31 31 31 31 30 29 29 28 27 27 25 24 24 25 25 25 25 25 24 24 23 23 22 22 21 21 21 20 20 21 21 21 21 21 21 21 21 21 21 21 21 20
32 32 32 32 31 31 30 29 28 27 26 24 23 24 24 25 25 25 25 25 25 24 24 23 22 21 21 21 21 22 22 22 22 22 22 22 22 22 22 22 22 22
31 32 32 32 32 32 31 30 29 28 27 25 24 24 24 25 25 25 25 25 25 25 24 24 23 22 22 22 22 22 22 23 23 23 23 23 23 23 23 23 22 22
28 30 31 31 31 32 32 31 30 30 29 28 27 26 25 25 26 25 25 24 24 23 23 23 23 23 23 23 23 23 23 23 23 23 23 23 23 23 23 22 22 22
24 26 28 29 30 30 31 31 31 31 30 30 29 28 27 26 26 26 25 25 24 23 23 23 23 23 24 24 23 23 23 23 23 23 23 23 23 23 23 23 23 23
22 23 23 25 26 27 28 30 31 31 31 30 29 29 28 27 26 26 26 26 25 25 25 25 24 24 24 24 24 24 24 24 24 24 24 24 23 23 23 23 23 23
16 18 18 20 21 23 24 26 28 30 30 29 29 29 29 27 26 26 25 25 25 25 25 25 25 24 23 23 24 24 24 24 25 25 25 25 25 24 24 24 24 24
Wind_Direction
201 201 201 201 201 201 201 202 202 203 204 204 206 206 205 205 203 202 202 203 205 205 204 203 203 204 204 204 203 202 205 208 211 215 217 220 224 229 234 237 241 248
205 205 205 205 205 205 204 205 206 207 209 210 211 210 209 211 210 209 209 210 212 212 212 212 211 212 212 211 212 213 215 217 217 218 222 225 227 232 236 239 243 246
210 210 210 209 209 209 208 208 210 211 213 214 214 213 212 214 214 214 214 215 216 217 217 219 219 219 220 219 220 221 222 224 224 224 226 229 231 234 238 241 244 246
214 214 214 214 214 214 213 213 213 214 215 216 216 215 215 215 216 217 217 218 219 220 221 223 224 224 225 226 226 226 226 228 229 230 231 234 234 236 239 242 244 246
217 217 217 217 218 219 218 218 217 217 217 218 218 218 218 219 219 220 221 221 222 224 225 227 228 228 230 230 230 230 230 231 232 233 235 237 238 238 240 241 243 246
218 219 219 219 220 221 221 222 222 221 221 220 220 221 221 222 223 223 223 223 224 225 227 228 229 230 230 231 232 232 232 233 233 233 236 238 239 239 240 241 244 247
219 220 220 221 221 222 223 224 224 225 224 223 223 223 223 224 226 226 226 225 226 227 227 229 230 231 231 231 233 234 234 236 236 236 239 240 240 241 241 243 245 247
221 221 222 222 222 223 224 225 226 226 226 226 226 226 226 226 227 227 228 227 227 228 229 231 232 234 235 234 234 235 235 237 238 238 240 241 241 243 244 245 246 248
223 223 224 223 223 224 225 226 227 227 227 228 228 229 229 229 229 228 228 229 229 230 231 232 234 236 236 235 236 236 237 239 239 239 239 240 242 244 246 247 248 250
226 226 226 225 225 226 227 227 228 228 228 229 229 231 231 231 231 230 230 230 231 232 233 234 235 236 237 236 237 237 239 240 242 242 242 243 244 245 246 247 248 250
226 227 228 227 227 228 228 228 229 229 229 229 230 231 232 232 232 232 232 232 233 234 235 235 235 236 237 237 237 238 239 241 242 244 245 246 246 246 247 247 248 249
228 228 228 228 228 229 230 230 230 230 230 230 231 231 232 232 232 233 233 234 235 235 236 236 236 236 237 237 238 240 241 242 243 244 246 247 247 248 248 249 249 250
231 229 229 230 230 229 230 230 231 231 230 230 231 231 232 232 233 233 233 235 236 237 237 237 237 238 238 238 239 241 242 243 244 245 247 248 248 248 249 250 251 252
235 233 231 231 231 231 230 231 231 231 231 231 231 231 232 233 233 234 234 235 236 237 237 237 238 239 240 240 241 241 243 244 245 246 246 247 247 248 251 253 254 255
238 238 236 235 234 233 232 232 232 231 232 232 232 232 233 233 234 235 236 236 237 237 238 238 239 240 241 241 242 242 243 244 245 246 246 247 248 250 252 254 255 256
238 239 240 240 239 237 234 233 232 232 232 232 232 233 234 234 235 235 237 237 237 238 239 239 241 242 241 241 242 243 244 244 246 247 248 249 250 251 252 254 255 255
239 239 241 242 242 241 239 236 233 232 233 233 233 234 235 235 236 236 237 238 238 239 239 240 242 242 241 241 242 244 245 246 248 249 249 249 250 251 253 254 255 256
241 241 242 243 243 243 242 239 236 234 234 235 235 235 235 236 237 237 238 238 239 240 240 241 242 242 241 241 242 243 245 247 249 250 251 251 251 252 253 255 257 257
242 242 243 243 243 243 243 242 240 236 235 236 237 237 237 237 237 238 238 238 239 240 241 242 243 243 243 243 243 244 245 247 248 250 252 252 253 254 255 257 258 258
243 243 243 242 243 244 244 244 244 240 237 237 238 238 239 239 239 239 239 239 240 240 242 243 244 244 244 244 245 245 246 247 249 250 251 253 254 255 256 257 258 259
243 243 243 243 243 244 244 245 244 241 239 239 239 240 241 241 241 241 241 241 241 241 242 243 243 244 244 245 246 247 247 248 250 251 252 253 255 256 258 259 259 259
243 243 243 243 244 243 242 243 243 241 240 240 241 241 242 242 242 243 243 243 243 242 242 242 243 245 247 247 248 248 248 249 250 251 252 254 255 257 258 259 258 258
246 244 243 243 243 242 241 242 242 241 241 240 240 241 242 243 243 243 244 245 245 245 244 244 245 247 248 248 249 249 250 250 251 252 253 255 256 257 258 258 258 260
247 244 244 244 242 241 241 241 241 241 241 239 240 241 243 244 244 244 244 245 247 247 247 247 247 249 249 249 249 251 251 251 253 254 255 256 257 258 259 260 261 263
248 246 246 245 243 242 242 242 241 240 239 239 240 241 241 243 244 245 245 245 245 247 248 248 247 249 250 249 250 252 252 253 254 256 257 257 258 259 260 261 262 263
247 245 244 245 244 244 245 244 241 239 238 240 242 241 241 242 245 247 246 245 245 247 248 248 246 247 249 250 251 253 254 255 256 257 258 258 258 259 260 261 263 263